owner,sensor,date,latitude,longitude,vertical_datum,sea_water_temperature,qcFlag
BP,ioos:station:wmo:42907:1,2021-10-01T00:02:00Z,28.4401,-88.2729,17.3,28.7,11111222
BP,ioos:station:wmo:42907:1,2021-10-01T00:12:00Z,28.4401,-88.2729,17.3,28.6,11111222
BP,ioos:station:wmo:42907:1,2021-10-01T00:22:00Z,28.4401,-88.2729,17.2,28.4,11111222
BP,ioos:station:wmo:42907:1,2021-10-01T00:32:00Z,28.4401,-88.2729,17.2,28.4,11111222
BP,ioos:station:wmo:42907:1,2021-10-01T00:42:00Z,28.4401,-88.2729,17.2,28.4,11111222
BP,ioos:station:wmo:42907:1,2021-10-01T00:53:00Z,28.4401,-88.2729,17.2,28.4,11111222
BP,ioos:station:wmo:42907:1,2021-10-01T01:03:00Z,28.4401,-88.2729,17.2,28.4,11111222
BP,ioos:station:wmo:42907:1,2021-10-01T01:13:00Z,28.4401,-88.2729,17.2,28.4,11111222
BP,ioos:station:wmo:42907:1,2021-10-01T01:23:00Z,28.4401,-88.2729,17.1,28.4,11111222
BP,ioos:station:wmo:42907:1,2021-10-01T01:33:00Z,28.4401,-88.2729,17.2,28.4,11111222
BP,ioos:station:wmo:42907:1,2021-10-01T01:43:00Z,28.4401,-88.2729,17.1,28.3,11111222
BP,ioos:station:wmo:42907:1,2021-10-01T01:53:00Z,28.4401,-88.2729,17.1,28.3,11111222
BP,ioos:station:wmo:42907:1,2021-10-01T02:03:00Z,28.4401,-88.2729,17.0,28.2,11111222
BP,ioos:station:wmo:42907:1,2021-10-01T02:13:00Z,28.4401,-88.2729,17.1,28.3,11111222
BP,ioos:station:wmo:42907:1,2021-10-01T02:23:00Z,28.4401,-88.2729,17.2,28.3,11111222
BP,ioos:station:wmo:42907:1,2021-10-01T02:33:00Z,28.4401,-88.2729,17.2,28.3,11111222
BP,ioos:station:wmo:42907:1,2021-10-01T02:43:00Z,28.4401,-88.2729,17.2,28.2,11111222
BP,ioos:station:wmo:42907:1,2021-10-01T02:53:00Z,28.4401,-88.2729,17.2,28.3,11111222
BP,ioos:station:wmo:42907:1,2021-10-01T03:03:00Z,28.4401,-88.2729,17.0,28.2,11111222
BP,ioos:station:wmo:42907:1,2021-10-01T03:13:00Z,28.4401,-88.2729,17.0,28.1,11111222
BP,ioos:station:wmo:42907:1,2021-10-01T03:23:00Z,28.4401,-88.2729,17.0,28.1,11111222
BP,ioos:station:wmo:42907:1,2021-10-01T03:33:00Z,28.4401,-88.2729,16.9,28.1,11111222
BP,ioos:station:wmo:42907:1,2021-10-01T03:43:00Z,28.4401,-88.2729,17.0,28.1,11111222
BP,ioos:station:wmo:42907:1,2021-10-01T03:53:00Z,28.4401,-88.2729,17.3,28.1,11111222
BP,ioos:station:wmo:42907:1,2021-10-01T04:03:00Z,28.4401,-88.2729,17.3,28.1,11111222
BP,ioos:station:wmo:42907:1,2021-10-01T04:13:00Z,28.4401,-88.2729,17.2,28.1,11111222
BP,ioos:station:wmo:42907:1,2021-10-01T04:23:00Z,28.4401,-88.2729,17.2,28.1,11111222
BP,ioos:station:wmo:42907:1,2021-10-01T04:33:00Z,28.4401,-88.2729,17.1,28.1,11111222
BP,ioos:station:wmo:42907:1,2021-10-01T04:43:00Z,28.4401,-88.2729,17.3,28.1,11111222
BP,ioos:station:wmo:42907:1,2021-10-01T04:53:00Z,28.4401,-88.2729,17.3,28.0,11111222
BP,ioos:station:wmo:42907:1,2021-10-01T05:03:00Z,28.4401,-88.2729,17.2,28.0,11111222
BP,ioos:station:wmo:42907:1,2021-10-01T05:13:00Z,28.4401,-88.2729,17.2,28.1,11111222
BP,ioos:station:wmo:42907:1,2021-10-01T05:23:00Z,28.4401,-88.2729,17.2,28.1,11111222
BP,ioos:station:wmo:42907:1,2021-10-01T05:33:00Z,28.4401,-88.2729,17.1,28.1,11111222
BP,ioos:station:wmo:42907:1,2021-10-01T05:43:00Z,28.4401,-88.2729,17.1,27.9,11111222
BP,ioos:station:wmo:42907:1,2021-10-01T05:53:00Z,28.4401,-88.2729,17.0,27.9,11111222
BP,ioos:station:wmo:42907:1,2021-10-01T06:03:00Z,28.4401,-88.2729,17.1,27.9,11111222
BP,ioos:station:wmo:42907:1,2021-10-01T06:13:00Z,28.4401,-88.2729,17.2,27.9,11111222
BP,ioos:station:wmo:42907:1,2021-10-01T06:23:00Z,28.4401,-88.2729,17.2,27.9,11111222
BP,ioos:station:wmo:42907:1,2021-10-01T06:33:00Z,28.4401,-88.2729,17.1,27.9,11111222
BP,ioos:station:wmo:42907:1,2021-10-01T06:43:00Z,28.4401,-88.2729,17.2,27.9,11111222
BP,ioos:station:wmo:42907:1,2021-10-01T06:53:00Z,28.4401,-88.2729,17.3,28.8,11111222
BP,ioos:station:wmo:42907:1,2021-10-01T07:03:00Z,28.4401,-88.2729,17.2,29.1,11111222
BP,ioos:station:wmo:42907:1,2021-10-01T07:13:00Z,28.4401,-88.2729,17.2,29.1,11111222
BP,ioos:station:wmo:42907:1,2021-10-01T07:23:00Z,28.4401,-88.2729,17.2,29.2,11111222
BP,ioos:station:wmo:42907:1,2021-10-01T07:33:00Z,28.4401,-88.2729,17.1,29.4,11111222
BP,ioos:station:wmo:42907:1,2021-10-01T07:43:00Z,28.4401,-88.2729,17.1,29.4,11111222
BP,ioos:station:wmo:42907:1,2021-10-01T07:53:00Z,28.4401,-88.2729,17.1,29.3,11111222
BP,ioos:station:wmo:42907:1,2021-10-01T08:03:00Z,28.4401,-88.2729,17.1,29.1,11111222
BP,ioos:station:wmo:42907:1,2021-10-01T08:14:00Z,28.4401,-88.2729,17.1,29.3,11111222
BP,ioos:station:wmo:42907:1,2021-10-01T08:24:00Z,28.4401,-88.2729,17.1,29.3,11111222
BP,ioos:station:wmo:42907:1,2021-10-01T08:34:00Z,28.4401,-88.2729,17.2,29.4,11111222
BP,ioos:station:wmo:42907:1,2021-10-01T08:44:00Z,28.4401,-88.2729,17.3,29.3,11111222
BP,ioos:station:wmo:42907:1,2021-10-01T08:54:00Z,28.4401,-88.2729,17.3,29.2,11111222
BP,ioos:station:wmo:42907:1,2021-10-01T09:04:00Z,28.4401,-88.2729,17.2,29.2,11111222
BP,ioos:station:wmo:42907:1,2021-10-01T09:14:00Z,28.4401,-88.2729,17.1,29.4,11111222
BP,ioos:station:wmo:42907:1,2021-10-01T09:24:00Z,28.4401,-88.2729,17.1,29.4,11111222
BP,ioos:station:wmo:42907:1,2021-10-01T09:34:00Z,28.4401,-88.2729,17.1,29.4,11111222
BP,ioos:station:wmo:42907:1,2021-10-01T09:44:00Z,28.4401,-88.2729,17.1,29.4,11111222
BP,ioos:station:wmo:42907:1,2021-10-01T09:54:00Z,28.4401,-88.2729,17.1,29.4,11111222
BP,ioos:station:wmo:42907:1,2021-10-01T10:04:00Z,28.4401,-88.2729,17.1,29.2,11111222
BP,ioos:station:wmo:42907:1,2021-10-01T10:14:00Z,28.4401,-88.2729,17.0,28.5,11111222
BP,ioos:station:wmo:42907:1,2021-10-01T10:24:00Z,28.4401,-88.2729,17.3,29.1,11111222
BP,ioos:station:wmo:42907:1,2021-10-01T10:34:00Z,28.4401,-88.2729,17.3,29.4,11111222
BP,ioos:station:wmo:42907:1,2021-10-01T10:44:00Z,28.4401,-88.2729,17.2,29.3,11111222
BP,ioos:station:wmo:42907:1,2021-10-01T10:54:00Z,28.4401,-88.2729,17.4,29.0,11111222
BP,ioos:station:wmo:42907:1,2021-10-01T11:04:00Z,28.4401,-88.2729,17.4,28.8,11111222
BP,ioos:station:wmo:42907:1,2021-10-01T11:14:00Z,28.4401,-88.2729,17.4,28.7,11111222
BP,ioos:station:wmo:42907:1,2021-10-01T11:24:00Z,28.4401,-88.2729,17.5,28.6,11111222
BP,ioos:station:wmo:42907:1,2021-10-01T11:34:00Z,28.4401,-88.2729,17.3,28.5,11111222
BP,ioos:station:wmo:42907:1,2021-10-01T11:44:00Z,28.4401,-88.2729,17.2,28.5,11111222
BP,ioos:station:wmo:42907:1,2021-10-01T11:54:00Z,28.4401,-88.2729,17.2,28.8,11111222
BP,ioos:station:wmo:42907:1,2021-10-01T12:04:00Z,28.4401,-88.2729,17.3,29.0,11111222
BP,ioos:station:wmo:42907:1,2021-10-01T12:14:00Z,28.4401,-88.2729,17.2,29.0,11111222
BP,ioos:station:wmo:42907:1,2021-10-01T12:24:00Z,28.4401,-88.2729,17.2,29.0,11111222
BP,ioos:station:wmo:42907:1,2021-10-01T12:34:00Z,28.4401,-88.2729,17.2,29.0,11111222
BP,ioos:station:wmo:42907:1,2021-10-01T12:44:00Z,28.4401,-88.2729,17.2,29.1,11111222
BP,ioos:station:wmo:42907:1,2021-10-01T12:54:00Z,28.4401,-88.2729,17.2,29.0,11111222
BP,ioos:station:wmo:42907:1,2021-10-01T13:04:00Z,28.4401,-88.2729,17.2,29.0,11111222
BP,ioos:station:wmo:42907:1,2021-10-01T13:14:00Z,28.4401,-88.2729,17.2,29.1,11111222
BP,ioos:station:wmo:42907:1,2021-10-01T13:24:00Z,28.4401,-88.2729,17.2,29.1,11111222
BP,ioos:station:wmo:42907:1,2021-10-01T13:34:00Z,28.4401,-88.2729,17.3,29.1,11111222
BP,ioos:station:wmo:42907:1,2021-10-01T13:44:00Z,28.4401,-88.2729,17.3,29.1,11111222
BP,ioos:station:wmo:42907:1,2021-10-01T13:54:00Z,28.4401,-88.2729,17.3,29.2,11111222
BP,ioos:station:wmo:42907:1,2021-10-01T14:04:00Z,28.4401,-88.2729,17.2,29.2,11111222
BP,ioos:station:wmo:42907:1,2021-10-01T14:14:00Z,28.4401,-88.2729,17.2,29.3,11111222
BP,ioos:station:wmo:42907:1,2021-10-01T14:24:00Z,28.4401,-88.2729,17.1,29.4,11111222
BP,ioos:station:wmo:42907:1,2021-10-01T14:34:00Z,28.4401,-88.2729,17.1,29.4,11111222
BP,ioos:station:wmo:42907:1,2021-10-01T14:44:00Z,28.4401,-88.2729,17.1,29.4,11111222
BP,ioos:station:wmo:42907:1,2021-10-01T14:54:00Z,28.4401,-88.2729,17.2,29.4,11111222
BP,ioos:station:wmo:42907:1,2021-10-01T15:04:00Z,28.4401,-88.2729,17.1,29.4,11111222
BP,ioos:station:wmo:42907:1,2021-10-01T15:14:00Z,28.4401,-88.2729,17.3,29.4,11111222
BP,ioos:station:wmo:42907:1,2021-10-01T15:24:00Z,28.4401,-88.2729,17.3,29.3,11111222
BP,ioos:station:wmo:42907:1,2021-10-01T15:35:00Z,28.4401,-88.2729,17.3,29.1,11111222
BP,ioos:station:wmo:42907:1,2021-10-01T15:45:00Z,28.4401,-88.2729,17.2,28.9,11111222
BP,ioos:station:wmo:42907:1,2021-10-01T15:55:00Z,28.4401,-88.2729,17.2,28.9,11111222
BP,ioos:station:wmo:42907:1,2021-10-01T16:05:00Z,28.4401,-88.2729,17.1,29.0,11111222
BP,ioos:station:wmo:42907:1,2021-10-01T16:15:00Z,28.4401,-88.2729,17.1,28.9,11111222
BP,ioos:station:wmo:42907:1,2021-10-01T16:25:00Z,28.4401,-88.2729,17.0,28.7,11111222
BP,ioos:station:wmo:42907:1,2021-10-01T16:35:00Z,28.4401,-88.2729,17.0,28.6,11111222
BP,ioos:station:wmo:42907:1,2021-10-01T16:45:00Z,28.4401,-88.2729,17.1,28.6,11111222
BP,ioos:station:wmo:42907:1,2021-10-01T16:55:00Z,28.4401,-88.2729,17.1,28.6,11111222
BP,ioos:station:wmo:42907:1,2021-10-01T17:05:00Z,28.4401,-88.2729,17.1,28.7,11111222
BP,ioos:station:wmo:42907:1,2021-10-01T17:15:00Z,28.4401,-88.2729,17.1,28.7,11111222
BP,ioos:station:wmo:42907:1,2021-10-01T17:25:00Z,28.4401,-88.2729,17.1,28.6,11111222
BP,ioos:station:wmo:42907:1,2021-10-01T17:35:00Z,28.4401,-88.2729,17.1,28.6,11111222
BP,ioos:station:wmo:42907:1,2021-10-01T17:45:00Z,28.4401,-88.2729,17.0,28.7,11111222
BP,ioos:station:wmo:42907:1,2021-10-01T17:55:00Z,28.4401,-88.2729,17.1,28.7,11111222
BP,ioos:station:wmo:42907:1,2021-10-01T18:05:00Z,28.4401,-88.2729,17.1,28.7,11111222
BP,ioos:station:wmo:42907:1,2021-10-01T18:15:00Z,28.4401,-88.2729,17.1,28.7,11111222
BP,ioos:station:wmo:42907:1,2021-10-01T18:25:00Z,28.4401,-88.2729,17.1,28.8,11111222
BP,ioos:station:wmo:42907:1,2021-10-01T18:35:00Z,28.4401,-88.2729,17.1,28.8,11111222
BP,ioos:station:wmo:42907:1,2021-10-01T18:45:00Z,28.4401,-88.2729,17.1,28.8,11111222
BP,ioos:station:wmo:42907:1,2021-10-01T18:55:00Z,28.4401,-88.2729,17.1,28.8,11111222
BP,ioos:station:wmo:42907:1,2021-10-01T19:05:00Z,28.4401,-88.2729,17.0,28.7,11111222
BP,ioos:station:wmo:42907:1,2021-10-01T19:15:00Z,28.4401,-88.2729,17.2,28.7,11111222
BP,ioos:station:wmo:42907:1,2021-10-01T19:25:00Z,28.4401,-88.2729,17.2,28.7,11111222
BP,ioos:station:wmo:42907:1,2021-10-01T19:35:00Z,28.4401,-88.2729,17.3,28.7,11111222
BP,ioos:station:wmo:42907:1,2021-10-01T19:45:00Z,28.4401,-88.2729,17.2,28.7,11111222
BP,ioos:station:wmo:42907:1,2021-10-01T19:55:00Z,28.4401,-88.2729,17.2,28.7,11111222
BP,ioos:station:wmo:42907:1,2021-10-01T20:05:00Z,28.4401,-88.2729,17.2,28.8,11111222
BP,ioos:station:wmo:42907:1,2021-10-01T20:15:00Z,28.4401,-88.2729,17.2,28.8,11111222
BP,ioos:station:wmo:42907:1,2021-10-01T20:25:00Z,28.4401,-88.2729,17.2,28.8,11111222
BP,ioos:station:wmo:42907:1,2021-10-01T20:35:00Z,28.4401,-88.2729,17.2,28.8,11111222
BP,ioos:station:wmo:42907:1,2021-10-01T20:45:00Z,28.4401,-88.2729,17.2,28.8,11111222
BP,ioos:station:wmo:42907:1,2021-10-01T20:55:00Z,28.4401,-88.2729,17.1,28.8,11111222
BP,ioos:station:wmo:42907:1,2021-10-01T21:05:00Z,28.4401,-88.2729,17.2,28.8,11111222
BP,ioos:station:wmo:42907:1,2021-10-01T21:15:00Z,28.4401,-88.2729,17.4,28.8,11111222
BP,ioos:station:wmo:42907:1,2021-10-01T21:25:00Z,28.4401,-88.2729,17.2,28.8,11111222
BP,ioos:station:wmo:42907:1,2021-10-01T21:35:00Z,28.4401,-88.2729,17.1,28.8,11111222
BP,ioos:station:wmo:42907:1,2021-10-01T21:45:00Z,28.4401,-88.2729,17.1,28.8,11111222
BP,ioos:station:wmo:42907:1,2021-10-01T21:55:00Z,28.4401,-88.2729,17.1,28.8,11111222
BP,ioos:station:wmo:42907:1,2021-10-01T22:05:00Z,28.4401,-88.2729,17.1,28.8,11111222
BP,ioos:station:wmo:42907:1,2021-10-01T22:15:00Z,28.4401,-88.2729,17.1,28.7,11111222
BP,ioos:station:wmo:42907:1,2021-10-01T22:25:00Z,28.4401,-88.2729,17.1,28.7,11111222
BP,ioos:station:wmo:42907:1,2021-10-01T22:35:00Z,28.4401,-88.2729,17.1,28.7,11111222
BP,ioos:station:wmo:42907:1,2021-10-01T22:46:00Z,28.4401,-88.2729,17.0,28.7,11111222
BP,ioos:station:wmo:42907:1,2021-10-01T22:56:00Z,28.4401,-88.2729,17.1,28.8,11111222
BP,ioos:station:wmo:42907:1,2021-10-01T23:06:00Z,28.4401,-88.2729,17.2,28.8,11111222
BP,ioos:station:wmo:42907:1,2021-10-01T23:16:00Z,28.4401,-88.2729,17.2,28.8,11111222
BP,ioos:station:wmo:42907:1,2021-10-01T23:26:00Z,28.4401,-88.2729,17.1,28.7,11111222
BP,ioos:station:wmo:42907:1,2021-10-01T23:36:00Z,28.4401,-88.2729,17.2,28.8,11111222
BP,ioos:station:wmo:42907:1,2021-10-01T23:46:00Z,28.4401,-88.2729,17.1,28.8,11111222
BP,ioos:station:wmo:42907:1,2021-10-01T23:56:00Z,28.4401,-88.2729,17.1,28.7,11111222
BP,ioos:station:wmo:42907:1,2021-10-02T00:06:00Z,28.4401,-88.2729,17.2,28.7,11111222
BP,ioos:station:wmo:42907:1,2021-10-02T00:16:00Z,28.4401,-88.2729,17.2,28.7,11111222
BP,ioos:station:wmo:42907:1,2021-10-02T00:26:00Z,28.4401,-88.2729,17.1,28.8,11111222
BP,ioos:station:wmo:42907:1,2021-10-02T00:36:00Z,28.4401,-88.2729,17.1,28.8,11111222
BP,ioos:station:wmo:42907:1,2021-10-02T00:46:00Z,28.4401,-88.2729,17.1,28.7,11111222
BP,ioos:station:wmo:42907:1,2021-10-02T00:56:00Z,28.4401,-88.2729,17.1,28.7,11111222
BP,ioos:station:wmo:42907:1,2021-10-02T01:06:00Z,28.4401,-88.2729,17.1,28.7,11111222
BP,ioos:station:wmo:42907:1,2021-10-02T01:16:00Z,28.4401,-88.2729,17.2,28.7,11111222
BP,ioos:station:wmo:42907:1,2021-10-02T01:26:00Z,28.4401,-88.2729,17.2,28.8,11111222
BP,ioos:station:wmo:42907:1,2021-10-02T01:36:00Z,28.4401,-88.2729,17.2,28.7,11111222
BP,ioos:station:wmo:42907:1,2021-10-02T01:46:00Z,28.4401,-88.2729,17.2,28.7,11111222
BP,ioos:station:wmo:42907:1,2021-10-02T01:56:00Z,28.4401,-88.2729,17.2,28.9,11111222
BP,ioos:station:wmo:42907:1,2021-10-02T02:06:00Z,28.4401,-88.2729,17.2,28.7,11111222
BP,ioos:station:wmo:42907:1,2021-10-02T02:16:00Z,28.4401,-88.2729,17.2,28.9,11111222
BP,ioos:station:wmo:42907:1,2021-10-02T02:26:00Z,28.4401,-88.2729,17.2,29.1,11111222
BP,ioos:station:wmo:42907:1,2021-10-02T02:36:00Z,28.4401,-88.2729,17.2,29.0,11111222
BP,ioos:station:wmo:42907:1,2021-10-02T02:46:00Z,28.4401,-88.2729,17.2,28.8,11111222
BP,ioos:station:wmo:42907:1,2021-10-02T02:56:00Z,28.4401,-88.2729,17.2,28.6,11111222
BP,ioos:station:wmo:42907:1,2021-10-02T03:06:00Z,28.4401,-88.2729,17.1,28.7,11111222
BP,ioos:station:wmo:42907:1,2021-10-02T03:16:00Z,28.4401,-88.2729,17.2,28.9,11111222
BP,ioos:station:wmo:42907:1,2021-10-02T03:26:00Z,28.4401,-88.2729,17.2,28.9,11111222
BP,ioos:station:wmo:42907:1,2021-10-02T03:36:00Z,28.4401,-88.2729,17.2,28.9,11111222
BP,ioos:station:wmo:42907:1,2021-10-02T03:46:00Z,28.4401,-88.2729,17.2,29.0,11111222
BP,ioos:station:wmo:42907:1,2021-10-02T03:56:00Z,28.4401,-88.2729,17.2,28.9,11111222
BP,ioos:station:wmo:42907:1,2021-10-02T04:06:00Z,28.4401,-88.2729,17.2,28.7,11111222
BP,ioos:station:wmo:42907:1,2021-10-02T04:16:00Z,28.4401,-88.2729,17.1,28.3,11111222
BP,ioos:station:wmo:42907:1,2021-10-02T04:26:00Z,28.4401,-88.2729,17.1,28.3,11111222
BP,ioos:station:wmo:42907:1,2021-10-02T04:36:00Z,28.4401,-88.2729,17.1,28.8,11111222
BP,ioos:station:wmo:42907:1,2021-10-02T04:46:00Z,28.4401,-88.2729,17.2,28.8,11111222
BP,ioos:station:wmo:42907:1,2021-10-02T04:56:00Z,28.4401,-88.2729,17.2,28.6,11111222
BP,ioos:station:wmo:42907:1,2021-10-02T05:06:00Z,28.4401,-88.2729,17.2,28.4,11111222
BP,ioos:station:wmo:42907:1,2021-10-02T05:16:00Z,28.4401,-88.2729,17.2,28.4,11111222
BP,ioos:station:wmo:42907:1,2021-10-02T05:26:00Z,28.4401,-88.2729,17.2,28.5,11111222
BP,ioos:station:wmo:42907:1,2021-10-02T05:36:00Z,28.4401,-88.2729,17.2,28.5,11111222
BP,ioos:station:wmo:42907:1,2021-10-02T05:46:00Z,28.4401,-88.2729,17.2,28.5,11111222
BP,ioos:station:wmo:42907:1,2021-10-02T05:56:00Z,28.4401,-88.2729,17.2,28.5,11111222
BP,ioos:station:wmo:42907:1,2021-10-02T06:07:00Z,28.4401,-88.2729,17.2,28.5,11111222
BP,ioos:station:wmo:42907:1,2021-10-02T06:17:00Z,28.4401,-88.2729,17.1,28.5,11111222
BP,ioos:station:wmo:42907:1,2021-10-02T06:27:00Z,28.4401,-88.2729,17.1,28.4,11111222
BP,ioos:station:wmo:42907:1,2021-10-02T06:37:00Z,28.4401,-88.2729,17.1,28.4,11111222
BP,ioos:station:wmo:42907:1,2021-10-02T06:47:00Z,28.4401,-88.2729,17.1,28.4,11111222
BP,ioos:station:wmo:42907:1,2021-10-02T06:57:00Z,28.4401,-88.2729,17.1,28.4,11111222
BP,ioos:station:wmo:42907:1,2021-10-02T07:07:00Z,28.4401,-88.2729,17.1,29.0,11111222
BP,ioos:station:wmo:42907:1,2021-10-02T07:17:00Z,28.4401,-88.2729,17.1,28.7,11111222
BP,ioos:station:wmo:42907:1,2021-10-02T07:27:00Z,28.4401,-88.2729,17.1,29.1,11111222
BP,ioos:station:wmo:42907:1,2021-10-02T07:37:00Z,28.4401,-88.2729,17.1,28.9,11111222
BP,ioos:station:wmo:42907:1,2021-10-02T07:47:00Z,28.4401,-88.2729,17.2,28.8,11111222
BP,ioos:station:wmo:42907:1,2021-10-02T07:57:00Z,28.4401,-88.2729,17.2,29.1,11111222
BP,ioos:station:wmo:42907:1,2021-10-02T08:07:00Z,28.4401,-88.2729,17.2,29.3,11111222
BP,ioos:station:wmo:42907:1,2021-10-02T08:17:00Z,28.4401,-88.2729,17.2,29.2,11111222
BP,ioos:station:wmo:42907:1,2021-10-02T08:27:00Z,28.4401,-88.2729,17.2,29.5,11111222
BP,ioos:station:wmo:42907:1,2021-10-02T08:37:00Z,28.4401,-88.2729,17.3,29.4,11111222
BP,ioos:station:wmo:42907:1,2021-10-02T08:47:00Z,28.4401,-88.2729,17.3,29.5,11111222
BP,ioos:station:wmo:42907:1,2021-10-02T08:57:00Z,28.4401,-88.2729,17.3,29.3,11111222
BP,ioos:station:wmo:42907:1,2021-10-02T09:07:00Z,28.4401,-88.2729,17.2,29.2,11111222
BP,ioos:station:wmo:42907:1,2021-10-02T09:17:00Z,28.4401,-88.2729,17.2,29.2,11111222
BP,ioos:station:wmo:42907:1,2021-10-02T09:27:00Z,28.4401,-88.2729,17.2,29.4,11111222
BP,ioos:station:wmo:42907:1,2021-10-02T09:37:00Z,28.4401,-88.2729,17.2,29.4,11111222
BP,ioos:station:wmo:42907:1,2021-10-02T09:47:00Z,28.4401,-88.2729,17.2,29.3,11111222
BP,ioos:station:wmo:42907:1,2021-10-02T09:57:00Z,28.4401,-88.2729,17.2,29.0,11111222
BP,ioos:station:wmo:42907:1,2021-10-02T10:07:00Z,28.4401,-88.2729,17.3,28.8,11111222
BP,ioos:station:wmo:42907:1,2021-10-02T10:17:00Z,28.4401,-88.2729,17.2,28.6,11111222
BP,ioos:station:wmo:42907:1,2021-10-02T10:27:00Z,28.4401,-88.2729,17.3,28.5,11111222
BP,ioos:station:wmo:42907:1,2021-10-02T10:37:00Z,28.4401,-88.2729,17.2,28.6,11111222
BP,ioos:station:wmo:42907:1,2021-10-02T10:47:00Z,28.4401,-88.2729,17.1,28.6,11111222
BP,ioos:station:wmo:42907:1,2021-10-02T10:57:00Z,28.4401,-88.2729,17.1,28.6,11111222
BP,ioos:station:wmo:42907:1,2021-10-02T11:07:00Z,28.4401,-88.2729,17.1,28.7,11111222
BP,ioos:station:wmo:42907:1,2021-10-02T11:17:00Z,28.4401,-88.2729,17.0,28.8,11111222
BP,ioos:station:wmo:42907:1,2021-10-02T11:27:00Z,28.4401,-88.2729,17.2,28.9,11111222
BP,ioos:station:wmo:42907:1,2021-10-02T11:37:00Z,28.4401,-88.2729,17.2,28.9,11111222
BP,ioos:station:wmo:42907:1,2021-10-02T11:47:00Z,28.4401,-88.2729,17.3,29.0,11111222
BP,ioos:station:wmo:42907:1,2021-10-02T11:57:00Z,28.4401,-88.2729,17.3,29.0,11111222
BP,ioos:station:wmo:42907:1,2021-10-02T12:07:00Z,28.4401,-88.2729,17.3,29.0,11111222
BP,ioos:station:wmo:42907:1,2021-10-02T12:17:00Z,28.4401,-88.2729,17.3,29.0,11111222
BP,ioos:station:wmo:42907:1,2021-10-02T12:27:00Z,28.4401,-88.2729,17.3,28.8,11111222
BP,ioos:station:wmo:42907:1,2021-10-02T12:37:00Z,28.4401,-88.2729,17.1,28.7,11111222
BP,ioos:station:wmo:42907:1,2021-10-02T12:47:00Z,28.4401,-88.2729,17.1,28.6,11111222
BP,ioos:station:wmo:42907:1,2021-10-02T12:57:00Z,28.4401,-88.2729,17.3,28.6,11111222
BP,ioos:station:wmo:42907:1,2021-10-02T13:07:00Z,28.4401,-88.2729,17.2,28.7,11111222
BP,ioos:station:wmo:42907:1,2021-10-02T13:17:00Z,28.4401,-88.2729,17.2,28.6,11111222
BP,ioos:station:wmo:42907:1,2021-10-02T13:28:00Z,28.4401,-88.2729,17.0,28.4,11111222
BP,ioos:station:wmo:42907:1,2021-10-02T13:38:00Z,28.4401,-88.2729,17.2,28.4,11111222
BP,ioos:station:wmo:42907:1,2021-10-02T13:48:00Z,28.4401,-88.2729,17.2,28.4,11111222
BP,ioos:station:wmo:42907:1,2021-10-02T13:58:00Z,28.4401,-88.2729,17.3,28.4,11111222
BP,ioos:station:wmo:42907:1,2021-10-02T14:08:00Z,28.4401,-88.2729,17.3,28.3,11111222
BP,ioos:station:wmo:42907:1,2021-10-02T14:18:00Z,28.4401,-88.2729,17.4,28.3,11111222
BP,ioos:station:wmo:42907:1,2021-10-02T14:28:00Z,28.4401,-88.2729,17.3,28.3,11111222
BP,ioos:station:wmo:42907:1,2021-10-02T14:38:00Z,28.4401,-88.2729,17.3,28.2,11111222
BP,ioos:station:wmo:42907:1,2021-10-02T14:48:00Z,28.4401,-88.2729,17.2,28.2,11111222
BP,ioos:station:wmo:42907:1,2021-10-02T14:58:00Z,28.4401,-88.2729,17.1,28.2,11111222
BP,ioos:station:wmo:42907:1,2021-10-02T15:08:00Z,28.4401,-88.2729,17.1,28.3,11111222
BP,ioos:station:wmo:42907:1,2021-10-02T15:18:00Z,28.4401,-88.2729,17.0,28.3,11111222
BP,ioos:station:wmo:42907:1,2021-10-02T15:28:00Z,28.4401,-88.2729,17.1,28.3,11111222
BP,ioos:station:wmo:42907:1,2021-10-02T15:38:00Z,28.4401,-88.2729,17.0,28.6,11111222
BP,ioos:station:wmo:42907:1,2021-10-02T15:48:00Z,28.4401,-88.2729,17.0,28.9,11111222
BP,ioos:station:wmo:42907:1,2021-10-02T15:58:00Z,28.4401,-88.2729,17.2,29.2,11111222
BP,ioos:station:wmo:42907:1,2021-10-02T16:08:00Z,28.4401,-88.2729,17.2,29.4,11111222
BP,ioos:station:wmo:42907:1,2021-10-02T16:18:00Z,28.4401,-88.2729,17.2,29.4,11111222
BP,ioos:station:wmo:42907:1,2021-10-02T16:28:00Z,28.4401,-88.2729,17.2,29.4,11111222
BP,ioos:station:wmo:42907:1,2021-10-02T16:38:00Z,28.4401,-88.2729,17.2,29.4,11111222
BP,ioos:station:wmo:42907:1,2021-10-02T16:48:00Z,28.4401,-88.2729,17.3,29.1,11111222
BP,ioos:station:wmo:42907:1,2021-10-02T16:58:00Z,28.4401,-88.2729,17.3,29.2,11111222
BP,ioos:station:wmo:42907:1,2021-10-02T17:08:00Z,28.4401,-88.2729,17.3,29.1,11111222
BP,ioos:station:wmo:42907:1,2021-10-02T17:18:00Z,28.4401,-88.2729,17.3,28.6,11111222
BP,ioos:station:wmo:42907:1,2021-10-02T17:28:00Z,28.4401,-88.2729,17.3,28.6,11111222
BP,ioos:station:wmo:42907:1,2021-10-02T17:38:00Z,28.4401,-88.2729,17.3,28.9,11111222
BP,ioos:station:wmo:42907:1,2021-10-02T17:48:00Z,28.4401,-88.2729,17.3,29.1,11111222
BP,ioos:station:wmo:42907:1,2021-10-02T17:58:00Z,28.4401,-88.2729,17.3,28.8,11111222
BP,ioos:station:wmo:42907:1,2021-10-02T18:08:00Z,28.4401,-88.2729,17.3,28.9,11111222
BP,ioos:station:wmo:42907:1,2021-10-02T18:18:00Z,28.4401,-88.2729,17.2,28.7,11111222
BP,ioos:station:wmo:42907:1,2021-10-02T18:28:00Z,28.4401,-88.2729,17.2,28.5,11111222
BP,ioos:station:wmo:42907:1,2021-10-02T18:38:00Z,28.4401,-88.2729,17.2,28.6,11111222
BP,ioos:station:wmo:42907:1,2021-10-02T18:48:00Z,28.4401,-88.2729,17.2,28.4,11111222
BP,ioos:station:wmo:42907:1,2021-10-02T18:58:00Z,28.4401,-88.2729,17.2,28.4,11111222
BP,ioos:station:wmo:42907:1,2021-10-02T19:08:00Z,28.4401,-88.2729,17.2,28.4,11111222
BP,ioos:station:wmo:42907:1,2021-10-02T19:18:00Z,28.4401,-88.2729,17.2,28.4,11111222
BP,ioos:station:wmo:42907:1,2021-10-02T19:28:00Z,28.4401,-88.2729,17.3,28.4,11111222
BP,ioos:station:wmo:42907:1,2021-10-02T19:38:00Z,28.4401,-88.2729,17.4,28.3,11111222
BP,ioos:station:wmo:42907:1,2021-10-02T19:48:00Z,28.4401,-88.2729,17.3,28.3,11111222
BP,ioos:station:wmo:42907:1,2021-10-02T19:58:00Z,28.4401,-88.2729,17.4,28.3,11111222
BP,ioos:station:wmo:42907:1,2021-10-02T20:08:00Z,28.4401,-88.2729,17.4,28.3,11111222
BP,ioos:station:wmo:42907:1,2021-10-02T20:18:00Z,28.4401,-88.2729,17.4,28.3,11111222
BP,ioos:station:wmo:42907:1,2021-10-02T20:28:00Z,28.4401,-88.2729,17.4,28.4,11111222
BP,ioos:station:wmo:42907:1,2021-10-02T20:38:00Z,28.4401,-88.2729,17.3,28.4,11111222
BP,ioos:station:wmo:42907:1,2021-10-02T20:49:00Z,28.4401,-88.2729,17.5,28.3,11111222
BP,ioos:station:wmo:42907:1,2021-10-02T20:59:00Z,28.4401,-88.2729,17.3,28.3,11111222
BP,ioos:station:wmo:42907:1,2021-10-02T21:09:00Z,28.4401,-88.2729,17.1,28.3,11111222
BP,ioos:station:wmo:42907:1,2021-10-02T21:19:00Z,28.4401,-88.2729,17.1,28.3,11111222
BP,ioos:station:wmo:42907:1,2021-10-02T21:29:00Z,28.4401,-88.2729,17.2,28.3,11111222
BP,ioos:station:wmo:42907:1,2021-10-02T21:39:00Z,28.4401,-88.2729,17.3,28.3,11111222
BP,ioos:station:wmo:42907:1,2021-10-02T21:49:00Z,28.4401,-88.2729,17.3,28.4,11111222
BP,ioos:station:wmo:42907:1,2021-10-02T21:59:00Z,28.4401,-88.2729,17.3,28.4,11111222
BP,ioos:station:wmo:42907:1,2021-10-02T22:09:00Z,28.4401,-88.2729,17.2,28.4,11111222
BP,ioos:station:wmo:42907:1,2021-10-02T22:19:00Z,28.4401,-88.2729,17.2,28.4,11111222